| time (UTC) | temp F | wind direction | speed knots | gust knots | rain 1hr in | rain 24hr in | rain mn in | humidity % | barometer mb |
| 20260504000058 | 73 | 105 | 0.0 | 0.0 | 0.00 | 0.00 | 0.00 | 40 | 1017.7 |
| 20260503235556 | 74 | 108 | 0.0 | 0.0 | 0.00 | 0.00 | 0.00 | 39 | 1017.8 |
| 20260503235053 | 75 | 5 | 0.9 | 2.6 | 0.00 | 0.00 | 0.00 | 36 | 1017.8 |
| 20260503234550 | 76 | 351 | 0.9 | 2.6 | 0.00 | 0.00 | 0.00 | 34 | 1017.7 |
| 20260503234048 | 76 | 312 | 1.7 | 1.7 | 0.00 | 0.00 | 0.00 | 34 | 1017.8 |
| 20260503233544 | 77 | 318 | 1.7 | 2.6 | 0.00 | 0.00 | 0.00 | 33 | 1017.5 |
| 20260503233040 | 77 | 329 | 0.9 | 2.6 | 0.00 | 0.00 | 0.00 | 33 | 1017.9 |
| 20260503232538 | 77 | 285 | 1.7 | 2.6 | 0.00 | 0.00 | 0.00 | 33 | 1017.7 |
| 20260503232035 | 77 | 249 | 0.9 | 2.6 | 0.00 | 0.00 | 0.00 | 32 | 1017.9 |
| 20260503231533 | 78 | 291 | 0.9 | 1.7 | 0.00 | 0.00 | 0.00 | 32 | 1017.9 |
| 20260503231029 | 79 | 43 | 0.0 | 2.6 | 0.00 | 0.00 | 0.00 | 32 | 1017.8 |
| 20260503230526 | 78 | 37 | 2.6 | 3.5 | 0.00 | 0.00 | 0.00 | 29 | 1017.9 |
| 20260503230024 | 78 | 59 | 1.7 | 1.7 | 0.00 | 0.00 | 0.00 | 30 | 1018.0 |
| 20260503225520 | 78 | 264 | 1.7 | 2.6 | 0.00 | 0.00 | 0.00 | 30 | 1017.9 |
| 20260503225015 | 78 | 281 | 1.7 | 2.6 | 0.00 | 0.00 | 0.00 | 31 | 1017.8 |
| 20260503224513 | 77 | 78 | 0.0 | 2.6 | 0.00 | 0.00 | 0.00 | 31 | 1017.9 |
| 20260503224011 | 78 | 205 | 2.6 | 7.8 | 0.00 | 0.00 | 0.00 | 30 | 1017.7 |
| 20260503223509 | 79 | 89 | 1.7 | 2.6 | 0.00 | 0.00 | 0.00 | 30 | 1017.7 |
| 20260503223004 | 79 | 244 | 1.7 | 1.7 | 0.00 | 0.00 | 0.00 | 29 | 1017.8 |
| 20260503222502 | 79 | 21 | 1.7 | 2.6 | 0.00 | 0.00 | 0.00 | 28 | 1017.8 |
| 20260503222000 | 78 | 315 | 0.0 | 2.6 | 0.00 | 0.00 | 0.00 | 33 | 1017.6 |
| 20260503221458 | 79 | 303 | 1.7 | 1.7 | 0.00 | 0.00 | 0.00 | 32 | 1017.9 |
| 20260503220955 | 80 | 323 | 1.7 | 3.5 | 0.00 | 0.00 | 0.00 | 29 | 1017.9 |
| 20260503220451 | 80 | 334 | 1.7 | 3.5 | 0.00 | 0.00 | 0.00 | 29 | 1017.9 |
| 20260503215948 | 79 | 2 | 0.9 | 1.7 | 0.00 | 0.00 | 0.00 | 31 | 1017.9 |
| 20260503215445 | 78 | 51 | 1.7 | 1.7 | 0.00 | 0.00 | 0.00 | 31 | 1017.8 |
| 20260503214943 | 78 | 272 | 1.7 | 5.2 | 0.00 | 0.00 | 0.00 | 30 | 1017.9 |
| 20260503214440 | 79 | 265 | 0.0 | 2.6 | 0.00 | 0.00 | 0.00 | 31 | 1018.0 |
| 20260503213937 | 79 | 242 | 0.9 | 3.5 | 0.00 | 0.00 | 0.00 | 32 | 1018.1 |
| 20260503213436 | 79 | 15 | 1.7 | 1.7 | 0.00 | 0.00 | 0.00 | 30 | 1018.0 |
| 20260503212931 | 79 | 281 | 1.7 | 3.5 | 0.00 | 0.00 | 0.00 | 32 | 1018.0 |
| 20260503212429 | 79 | 282 | 5.2 | 7.0 | 0.00 | 0.00 | 0.00 | 31 | 1017.9 |
| 20260503211926 | 79 | 102 | 0.9 | 2.6 | 0.00 | 0.00 | 0.00 | 31 | 1018.1 |
| 20260503211423 | 79 | 282 | 0.9 | 2.6 | 0.00 | 0.00 | 0.00 | 33 | 1018.1 |
| 20260503210918 | 79 | 273 | 2.6 | 5.2 | 0.00 | 0.00 | 0.00 | 31 | 1018.2 |
| 20260503210416 | 79 | 266 | 1.7 | 6.1 | 0.00 | 0.00 | 0.00 | 30 | 1018.3 |
| 20260503205910 | 80 | 283 | 3.5 | 3.5 | 0.00 | 0.00 | 0.00 | 31 | 1018.5 |
| 20260503205408 | 80 | 328 | 0.9 | 1.7 | 0.00 | 0.00 | 0.00 | 31 | 1018.4 |
| 20260503204903 | 79 | 344 | 1.7 | 5.2 | 0.00 | 0.00 | 0.00 | 30 | 1018.5 |
| 20260503204400 | 79 | 173 | 0.9 | 5.2 | 0.00 | 0.00 | 0.00 | 32 | 1018.7 |
| 20260503203858 | 80 | 307 | 2.6 | 6.1 | 0.00 | 0.00 | 0.00 | 29 | 1018.9 |
| 20260503203355 | 79 | 279 | 0.9 | 1.7 | 0.00 | 0.00 | 0.00 | 33 | 1018.8 |
| 20260503202852 | 79 | 99 | 0.0 | 2.6 | 0.00 | 0.00 | 0.00 | 32 | 1019.1 |
| 20260503202350 | 78 | 276 | 3.5 | 5.2 | 0.00 | 0.00 | 0.00 | 31 | 1019.0 |
| 20260503201849 | 78 | 85 | 0.0 | 3.5 | 0.00 | 0.00 | 0.00 | 30 | 1019.0 |
| 20260503201345 | 78 | 120 | 1.7 | 5.2 | 0.00 | 0.00 | 0.00 | 31 | 1019.0 |
| 20260503200843 | 79 | 301 | 2.6 | 3.5 | 0.00 | 0.00 | 0.00 | 32 | 1019.1 |
| 20260503200338 | 78 | 86 | 0.9 | 0.9 | 0.00 | 0.00 | 0.00 | 33 | 1018.9 |
| 20260503195836 | 77 | 294 | 3.5 | 5.2 | 0.00 | 0.00 | 0.00 | 34 | 1019.1 |
| 20260503195332 | 78 | 275 | 1.7 | 2.6 | 0.00 | 0.00 | 0.00 | 32 | 1019.3 |
| 20260503194830 | 78 | 181 | 0.9 | 3.5 | 0.00 | 0.00 | 0.00 | 33 | 1019.3 |
| 20260503194325 | 78 | 75 | 0.9 | 2.6 | 0.00 | 0.00 | 0.00 | 32 | 1019.5 |
| 20260503193822 | 79 | 106 | 1.7 | 2.6 | 0.00 | 0.00 | 0.00 | 33 | 1019.6 |
| 20260503193318 | 78 | 337 | 0.0 | 1.7 | 0.00 | 0.00 | 0.00 | 33 | 1019.7 |
| 20260503192814 | 79 | 98 | 1.7 | 1.7 | 0.00 | 0.00 | 0.00 | 33 | 1019.8 |
| 20260503192309 | 78 | 114 | 1.7 | 5.2 | 0.00 | 0.00 | 0.00 | 31 | 1019.8 |
| 20260503191806 | 78 | 117 | 0.9 | 2.6 | 0.00 | 0.00 | 0.00 | 32 | 1019.8 |
| 20260503191303 | 77 | 291 | 0.9 | 3.5 | 0.00 | 0.00 | 0.00 | 34 | 1020.0 |
| 20260503190800 | 78 | 260 | 1.7 | 3.5 | 0.00 | 0.00 | 0.00 | 31 | 1020.0 |
| 20260503190256 | 78 | 344 | 3.5 | 3.5 | 0.00 | 0.00 | 0.00 | 32 | 1020.2 |
| 20260503185754 | 78 | 295 | 0.9 | 3.5 | 0.00 | 0.00 | 0.00 | 31 | 1020.3 |
| 20260503185249 | 77 | 138 | 1.7 | 5.2 | 0.00 | 0.00 | 0.00 | 30 | 1020.5 |
| 20260503184744 | 76 | 98 | 1.7 | 1.7 | 0.00 | 0.00 | 0.00 | 38 | 1020.3 |
| 20260503184241 | 76 | 351 | 0.9 | 3.5 | 0.00 | 0.00 | 0.00 | 32 | 1020.4 |
| 20260503183737 | 76 | 283 | 1.7 | 2.6 | 0.00 | 0.00 | 0.00 | 35 | 1020.7 |
| 20260503183235 | 76 | 233 | 1.7 | 5.2 | 0.00 | 0.00 | 0.00 | 31 | 1020.6 |
| 20260503182733 | 75 | 163 | 0.0 | 2.6 | 0.00 | 0.00 | 0.00 | 33 | 1020.8 |
| 20260503182231 | 77 | 101 | 0.9 | 1.7 | 0.00 | 0.00 | 0.00 | 30 | 1020.9 |
| 20260503181727 | 77 | 120 | 1.7 | 3.5 | 0.00 | 0.00 | 0.00 | 33 | 1020.9 |
| 20260503181225 | 77 | 282 | 2.6 | 2.6 | 0.00 | 0.00 | 0.00 | 30 | 1020.7 |
| 20260503180721 | 77 | 81 | 0.0 | 3.5 | 0.00 | 0.00 | 0.00 | 36 | 1020.9 |
| 20260503180220 | 77 | 339 | 1.7 | 3.5 | 0.00 | 0.00 | 0.00 | 31 | 1020.9 |
| 20260503175716 | 77 | 282 | 1.7 | 3.5 | 0.00 | 0.00 | 0.00 | 32 | 1020.8 |
| 20260503175214 | 77 | 318 | 1.7 | 2.6 | 0.00 | 0.00 | 0.00 | 32 | 1021.2 |
| 20260503174709 | 77 | 227 | 2.6 | 6.1 | 0.00 | 0.00 | 0.00 | 32 | 1021.0 |
| 20260503174207 | 78 | 266 | 0.9 | 1.7 | 0.00 | 0.00 | 0.00 | 31 | 1020.9 |
| 20260503173702 | 77 | 356 | 0.9 | 1.7 | 0.00 | 0.00 | 0.00 | 37 | 1021.1 |
| 20260503173158 | 76 | 262 | 2.6 | 2.6 | 0.00 | 0.00 | 0.00 | 35 | 1021.3 |
| 20260503172655 | 76 | 311 | 0.9 | 5.2 | 0.00 | 0.00 | 0.00 | 33 | 1021.0 |
| 20260503172153 | 76 | 159 | 0.0 | 2.6 | 0.00 | 0.00 | 0.00 | 35 | 1021.3 |
| 20260503171649 | 75 | 229 | 1.7 | 7.0 | 0.00 | 0.00 | 0.00 | 32 | 1021.1 |
| 20260503171146 | 75 | 90 | 1.7 | 6.1 | 0.00 | 0.00 | 0.00 | 34 | 1021.3 |
| 20260503170643 | 75 | 73 | 0.0 | 3.5 | 0.00 | 0.00 | 0.00 | 38 | 1021.3 |
| 20260503170140 | 76 | 94 | 0.9 | 3.5 | 0.00 | 0.00 | 0.00 | 30 | 1021.4 |
| 20260503150531 | 74 | 348 | 3.5 | 3.5 | 0.00 | 0.00 | 0.00 | 37 | 1022.2 |
| 20260503130921 | 62 | 39 | 0.0 | 0.9 | 0.00 | 0.00 | 0.00 | 60 | 1021.7 |
| 20260503130419 | 60 | 88 | 0.0 | 2.6 | 0.00 | 0.00 | 0.00 | 64 | 1021.3 |
| 20260503110823 | 48 | 78 | 0.0 | 0.0 | 0.00 | 0.00 | 0.00 | 93 | 1020.3 |
| 20260503110319 | 48 | 78 | 0.0 | 0.0 | 0.00 | 0.00 | 0.00 | 93 | 1020.4 |
| 20260503100245 | 48 | 54 | 0.0 | 0.0 | 0.00 | 0.00 | 0.00 | 91 | 1020.1 |
| 20260503090206 | 48 | 89 | 0.0 | 0.0 | 0.00 | 0.00 | 0.00 | 88 | 1019.7 |
| 20260503081636 | 50 | 62 | 0.0 | 0.0 | 0.00 | 0.00 | 0.00 | 82 | 1019.4 |
| 20260503081132 | 51 | 63 | 0.0 | 0.0 | 0.00 | 0.00 | 0.00 | 82 | 1019.6 |
| 20260503080628 | 51 | 62 | 0.0 | 0.0 | 0.00 | 0.00 | 0.00 | 81 | 1019.4 |
| 20260503080126 | 51 | 62 | 0.0 | 0.0 | 0.00 | 0.00 | 0.00 | 80 | 1019.5 |
| 20260503072602 | 53 | 84 | 0.0 | 0.0 | 0.00 | 0.00 | 0.00 | 77 | 1019.1 |
| 20260503072100 | 53 | 56 | 0.0 | 0.0 | 0.00 | 0.00 | 0.00 | 76 | 1019.1 |
| 20260503071556 | 53 | 56 | 0.0 | 0.0 | 0.00 | 0.00 | 0.00 | 76 | 1019.0 |
| 20260503071053 | 53 | 47 | 0.0 | 0.0 | 0.00 | 0.00 | 0.00 | 77 | 1018.9 |
| 20260503070549 | 53 | 78 | 0.0 | 0.0 | 0.00 | 0.00 | 0.00 | 77 | 1019.2 |
| 20260503055009 | 53 | 54 | 0.0 | 0.0 | 0.00 | 0.00 | 0.00 | 80 | 1019.0 |
| 20260503054504 | 53 | 62 | 0.0 | 0.0 | 0.00 | 0.00 | 0.00 | 80 | 1019.0 |
| 20260503054002 | 53 | 61 | 0.0 | 0.0 | 0.00 | 0.00 | 0.00 | 80 | 1018.9 |
| 20260503053500 | 53 | 61 | 0.0 | 0.0 | 0.00 | 0.00 | 0.00 | 81 | 1018.9 |
| 20260503052956 | 53 | 61 | 0.0 | 0.0 | 0.00 | 0.00 | 0.00 | 82 | 1019.0 |
| 20260503052454 | 53 | 60 | 0.0 | 0.0 | 0.00 | 0.00 | 0.00 | 82 | 1019.1 |
| 20260503051950 | 53 | 70 | 0.0 | 0.0 | 0.00 | 0.00 | 0.00 | 82 | 1018.8 |
| 20260503051446 | 53 | 50 | 0.0 | 0.0 | 0.00 | 0.00 | 0.00 | 81 | 1018.8 |
| 20260503050943 | 53 | 61 | 0.0 | 0.0 | 0.00 | 0.00 | 0.00 | 80 | 1018.8 |
| 20260503050439 | 53 | 61 | 0.0 | 0.0 | 0.00 | 0.00 | 0.00 | 80 | 1018.8 |
| 20260503045937 | 54 | 61 | 0.0 | 0.0 | 0.00 | 0.65 | 0.65 | 80 | 1018.9 |
| 20260503045435 | 54 | 60 | 0.0 | 0.0 | 0.00 | 0.65 | 0.65 | 80 | 1018.8 |
| 20260503044931 | 54 | 55 | 0.0 | 0.0 | 0.00 | 0.65 | 0.65 | 79 | 1018.5 |
| 20260503044428 | 54 | 56 | 0.0 | 0.0 | 0.00 | 0.65 | 0.65 | 79 | 1018.6 |
| 20260503043925 | 55 | 56 | 0.0 | 0.0 | 0.00 | 0.65 | 0.65 | 77 | 1018.6 |
| 20260503043421 | 55 | 55 | 0.0 | 0.0 | 0.00 | 0.65 | 0.65 | 77 | 1018.6 |
| 20260503042918 | 55 | 55 | 0.0 | 0.0 | 0.00 | 0.65 | 0.65 | 77 | 1018.7 |
| 20260503042415 | 55 | 55 | 0.0 | 0.0 | 0.00 | 0.65 | 0.65 | 78 | 1018.7 |
| 20260503041911 | 55 | 46 | 0.0 | 0.0 | 0.00 | 0.65 | 0.65 | 78 | 1018.6 |
| 20260503041408 | 55 | 46 | 0.0 | 0.0 | 0.00 | 0.65 | 0.65 | 78 | 1018.6 |
| 20260503040906 | 54 | 43 | 0.0 | 0.0 | 0.00 | 0.65 | 0.65 | 78 | 1018.6 |
| 20260503040403 | 54 | 58 | 0.0 | 0.0 | 0.00 | 0.65 | 0.65 | 78 | 1018.4 |
| 20260503035900 | 54 | 53 | 0.0 | 0.0 | 0.00 | 0.65 | 0.65 | 78 | 1018.4 |
| 20260503035357 | 54 | 58 | 0.0 | 0.0 | 0.00 | 0.65 | 0.65 | 78 | 1018.6 |
| 20260503034854 | 54 | 58 | 0.0 | 0.0 | 0.00 | 0.65 | 0.65 | 78 | 1018.4 |
| 20260503034351 | 55 | 58 | 0.0 | 0.0 | 0.00 | 0.65 | 0.65 | 77 | 1018.5 |
| 20260503033849 | 55 | 58 | 0.0 | 0.0 | 0.00 | 0.65 | 0.65 | 77 | 1018.4 |
| 20260503033346 | 55 | 58 | 0.0 | 0.0 | 0.00 | 0.65 | 0.65 | 77 | 1018.4 |
| 20260503032844 | 55 | 58 | 0.0 | 0.0 | 0.00 | 0.65 | 0.65 | 76 | 1018.2 |
| 20260503032343 | 55 | 58 | 0.0 | 0.0 | 0.00 | 0.65 | 0.65 | 75 | 1018.3 |
| 20260503031840 | 55 | 57 | 0.0 | 0.0 | 0.00 | 0.65 | 0.65 | 75 | 1018.1 |
| 20260503031337 | 55 | 59 | 0.0 | 0.0 | 0.00 | 0.65 | 0.65 | 74 | 1018.0 |
| 20260503030833 | 56 | 59 | 0.0 | 0.0 | 0.00 | 0.65 | 0.65 | 73 | 1018.1 |
| 20260503030330 | 56 | 59 | 0.0 | 0.0 | 0.00 | 0.65 | 0.65 | 74 | 1018.0 |
| 20260503025827 | 57 | 59 | 0.0 | 0.0 | 0.00 | 0.65 | 0.65 | 73 | 1017.8 |
| 20260503025324 | 57 | 59 | 0.0 | 0.0 | 0.00 | 0.65 | 0.65 | 72 | 1017.9 |
| 20260503024821 | 57 | 59 | 0.0 | 0.0 | 0.00 | 0.65 | 0.65 | 71 | 1017.9 |
| 20260503024318 | 57 | 55 | 0.0 | 0.0 | 0.00 | 0.65 | 0.65 | 70 | 1018.0 |
| 20260503023815 | 58 | 56 | 0.0 | 0.0 | 0.00 | 0.65 | 0.65 | 69 | 1017.8 |
| 20260503023312 | 58 | 56 | 0.0 | 0.0 | 0.00 | 0.65 | 0.65 | 68 | 1017.8 |
| 20260503022808 | 58 | 60 | 0.0 | 0.0 | 0.00 | 0.65 | 0.65 | 68 | 1017.8 |
| 20260503022308 | 58 | 60 | 0.0 | 0.0 | 0.00 | 0.65 | 0.65 | 66 | 1017.6 |
| 20260503021805 | 59 | 60 | 0.0 | 0.0 | 0.00 | 0.65 | 0.65 | 67 | 1017.6 |
| 20260503021301 | 59 | 60 | 0.0 | 0.0 | 0.00 | 0.65 | 0.65 | 65 | 1017.6 |
| 20260503020759 | 60 | 60 | 0.0 | 0.0 | 0.00 | 0.65 | 0.65 | 62 | 1017.5 |
| 20260503020257 | 60 | 60 | 0.0 | 0.0 | 0.00 | 0.65 | 0.65 | 61 | 1017.4 |
| 20260503015752 | 61 | 60 | 0.0 | 0.0 | 0.00 | 0.65 | 0.65 | 57 | 1017.4 |
| 20260503015250 | 61 | 60 | 0.0 | 0.0 | 0.00 | 0.65 | 0.65 | 55 | 1017.1 |
| 20260503014745 | 62 | 60 | 0.0 | 0.0 | 0.00 | 0.65 | 0.65 | 54 | 1017.2 |
| 20260503014244 | 62 | 59 | 0.0 | 0.0 | 0.00 | 0.65 | 0.65 | 53 | 1017.1 |
| 20260503013740 | 63 | 46 | 0.9 | 0.9 | 0.00 | 0.65 | 0.65 | 52 | 1017.1 |
| 20260503013238 | 63 | 21 | 0.9 | 1.7 | 0.00 | 0.65 | 0.65 | 51 | 1016.8 |
| 20260503012735 | 63 | 98 | 0.0 | 0.9 | 0.00 | 0.65 | 0.65 | 51 | 1017.1 |
| 20260503012232 | 64 | 15 | 0.9 | 1.7 | 0.00 | 0.65 | 0.65 | 50 | 1016.8 |
| 20260503011729 | 64 | 17 | 0.0 | 1.7 | 0.00 | 0.65 | 0.65 | 50 | 1016.8 |
| 20260503011226 | 64 | 43 | 0.9 | 2.6 | 0.00 | 0.65 | 0.65 | 49 | 1016.6 |
| 20260503010722 | 64 | 339 | 0.0 | 1.7 | 0.00 | 0.65 | 0.65 | 48 | 1016.4 |
| 20260503010219 | 65 | 322 | 0.9 | 0.9 | 0.00 | 0.65 | 0.65 | 48 | 1016.3 |
| 20260503005717 | 65 | 22 | 1.7 | 3.5 | 0.00 | 0.65 | 0.65 | 47 | 1016.2 |
| 20260503005214 | 65 | 74 | 0.9 | 1.7 | 0.00 | 0.65 | 0.65 | 46 | 1016.3 |
| 20260503004710 | 66 | 50 | 0.0 | 1.7 | 0.00 | 0.65 | 0.65 | 46 | 1016.1 |
| 20260503004209 | 66 | 34 | 1.7 | 3.5 | 0.00 | 0.65 | 0.65 | 45 | 1016.0 |
| 20260503003705 | 66 | 309 | 1.7 | 3.5 | 0.00 | 0.65 | 0.65 | 45 | 1016.0 |
| 20260503003202 | 67 | 247 | 1.7 | 3.5 | 0.00 | 0.65 | 0.65 | 44 | 1015.8 |
| 20260503002659 | 67 | 255 | 1.7 | 1.7 | 0.00 | 0.65 | 0.65 | 44 | 1015.6 |
| 20260503002155 | 67 | 46 | 0.0 | 1.7 | 0.00 | 0.65 | 0.65 | 43 | 1015.5 |
| 20260503001651 | 68 | 14 | 1.7 | 3.5 | 0.00 | 0.65 | 0.65 | 42 | 1015.5 |
| 20260503001148 | 68 | 273 | 2.6 | 5.2 | 0.00 | 0.65 | 0.65 | 41 | 1015.4 |
| 20260503000646 | 68 | 42 | 1.7 | 6.1 | 0.00 | 0.65 | 0.65 | 41 | 1015.3 |